User: anonymous   Login
Location: Keeble Observatory
(37.7625°N, 77.4755°W)
Time: 19:32:38
(UTC-05:00)
Language:

Cosmos 1484 Rocket - Orbit

View from above orbital plane
View from above orbital plane
View from above satellite
View from above satellite

Ground track
Ground track

The orbit data is extracted from the following two-line orbital elements,

1 14208U 83075B   17343.92031618 +.00000195 +00000-0 +15478-4 0  9990
2 14208 097.3405 347.2855 0037753 243.7580 115.9768 15.10573917873737
Epoch (UTC): 09 December 2017 22:05:15
Eccentricity: 0.0037753
inclination: 97.3405°
perigee height: 508 km
apogee height: 560 km
right ascension of ascending node: 347.2855°
argument of perigee: 243.7580°
revolutions per day: 15.10573917
mean anomaly at epoch: 115.9768°
orbit number at epoch: 87373

The dashed part of the orbit path shows where the satellite is in the earth's shadow,  

DLR